Weather Roundup
Issued by NWS Chicago, IL

Home | Current Version | Previous Version | Graphics & Text | Print | Product List | Glossary On
Versions: 1 2 3 4 5 6 7 8 9 10 11 12 13 14 15 16 17 18 19 20 21 22 23 24 25 26 27 28 29 30 31 32 33 34 35 36 37 38 39 40 41 42 43 44 45 46 47 48 49 50
000
NZUS59 KLOT 210708
HRRLOT

CHICAGO AREA WEATHER ROUNDUP
NATIONAL WEATHER SERVICE CHICAGO/ROMEOVILLE IL
100 AM CST TUE NOV 21 2017

NOTE: "FAIR" INDICATES FEW OR NO CLOUDS BELOW 12,000 FEET WITH NO
SIGNIFICANT WEATHER AND/OR OBSTRUCTIONS TO VISIBILITY.

* THESE STATIONS ARE NOT UNDER NWS QUALITY CONTROL. THEY ALSO MAY NOT
  REPORT WEATHER SUCH AS PRECIPITATION OR FOG.

ILZ005-006-012>014-019>023-210800-
NORTHEAST ILLINOIS

CITY           SKY/WX    TMP DP  RH WIND       PRES   REMARKS
OHARE          MOCLDY    44  31  60 SW21G31   29.66F
MIDWAY         MOCLDY    43  31  62 SW17      29.69F
AURORA         CLOUDY    43  32  65 S20       29.68F
LANSING*       PTCLDY    41  32  70 SW22G31   29.72F
JOLIET*        MOCLDY    44  33  64 S15G21    29.71S
WAUKEGAN       CLOUDY    45  31  58 SW17G31   29.61F
DUPAGE AIRPORT CLOUDY    43  32  65 S18G26    29.66F
WHEELING       CLOUDY    45  32  60 S16G24    29.66F
KANKAKEE*      CLOUDY    42  30  64 SW20G28   29.76F
MORRIS*        CLOUDY    43  32  64 SW18      29.69F
LEWIS AIRPORT* MOCLDY    42  32  67 SW22G28   29.69F
NORTHERLY ISL    N/A     43  29  58 S20         N/A
$$

WIZ051-052-058>065-066-070>072-210800-
SOUTHEAST WISCONSIN

CITY           SKY/WX    TMP DP  RH WIND       PRES   REMARKS
MILWAUKEE      PTCLDY    45  32  60 SW17      29.57F
KENOSHA*       CLOUDY    46  30  53 SW15G36   29.60F
RACINE*        CLOUDY    46  31  55 SW16G31   29.60S
BURLINGTON     CLOUDY    44  36  73 SW20G26   29.59F
WAUKESHA       CLEAR     41  30  65 SW10      29.57S
WEST BEND      CLEAR     46  30  53 SW16G29   29.51F
$$

INZ001>003-010>013-019-020-210800-
NORTHWEST INDIANA

CITY           SKY/WX    TMP DP  RH WIND       PRES   REMARKS
GARY*          CLEAR     44  28  54 S10G21    29.72F
MICHIGAN CITY* NOT AVBL
RENSSELAER*    NOT AVBL
VALPARAISO     PTCLDY    43  29  57 SW18G28   29.75F
$$

LMZ740>746-210800-
SOUTHERN LAKE MICHIGAN

STATION/POSITION TIME  SKY/WX   TEMP WIND        PRES    VSBY
                                AIR  DIR/SP/G
                 (UTC)          (F)  (DEG/KT/KT) (MB)    (MI)
HARRISON CRIB    0640            44  210/ 32/ 38   N/A
BURNHAM HARBOR   0700            43  180/ 15/ 20   N/A
CALUMET HARBOR   0642            43  190/ 13/ 20 1005.1F
BURNS HARBOR     0627            45  200/ 24     1006.8F
MICHIGAN CITY    0640            44  180/ 22/ 28   N/A
$$

ABBREVIATIONS USED IN REMARKS
   TC - TEMPERATURE IN CELSIUS
  WCI - WIND CHILL INDEX
   HX - HEAT INDEX
  VSB - VISIBILITY
$$




USA.gov is the U.S. government's official web portal to all federal, state and local government web resources and services.